Regional Weather Roundup
Issued by NWS

Home | Current Version | Previous Version | Text Only | Print | Product List | Glossary Off
Versions: 1 2 3 4 5 6 7 8 9 10 11 12 13 14 15 16 17 18 19 20 21 22 23 24 25 26 27 28 29 30 31 32 33 34 35 36 37 38 39 40 41 42 43 44 45 46 47 48 49 50

000
ASUS43 KFSD 261010
RWRSD

WEATHER ROUNDUP FOR SOUTH DAKOTA
NATIONAL WEATHER SERVICE SIOUX FALLS SD
400 AM CST SUN FEB 26 2017

NOTE: "FAIR" INDICATES FEW OR NO CLOUDS BELOW 12,000 FEET WITH NO
SIGNIFICANT WEATHER AND/OR OBSTRUCTIONS TO VISIBILITY.


SDZ001>005-009-010-012>017-261100-
NORTHWEST AND NORTH CENTRAL SOUTH DAKOTA

CITY           SKY/WX    TMP DP  RH WIND       PRES   REMARKS
BUFFALO          N/A     18  12  77 W10       29.59S WCI   6
FAITH            N/A     20  17  88 W12       29.70S WCI   8
MOBRIDGE       PTCLDY    22  16  78 NW12      29.70R WCI  10
$$

SDZ012>016-024>037-041>051-057-063-072>074-261100-
SOUTHWEST AND SOUTH CENTRAL SOUTH DAKOTA

CITY           SKY/WX    TMP DP  RH WIND       PRES   REMARKS
RAPID CTY ARPT PTCLDY    16   8  71 W7        29.72F WCI   6
PIERRE         CLEAR     24  20  84 W9        29.73S WCI  14
CUSTER         CLEAR      9   3  77 SW6       29.65S WCI  -1
ELLSWORTH AFB  CLEAR     15  10  77 W9        29.71S WCI   4
PHILIP         CLEAR     18  15  88 W6        29.76S WCI  10
PINE RIDGE     CLEAR     13   5  70 W6        29.78S WCI   4
SPEARFISH      MOCLDY    23  10  58 W12       29.68F WCI  12
WINNER         FAIR      21  12  68 W8        29.76R WCI  11
$$

SDZ004>011-016>023-039-040-261100-
NORTHEAST SOUTH DAKOTA

CITY           SKY/WX    TMP DP  RH WIND       PRES   REMARKS
ABERDEEN       CLEAR     19  16  88 SW6       29.70S WCI  11
WATERTOWN      FLURRIES  24  22  91 NW9       29.68F WCI  14
BROOKINGS      CLOUDY    20  18  92 S6        29.70F WCI  12
SISSETON         N/A     26  23  88 W7        29.67F WCI  18
$$

SDZ017-020-022-023-036>040-048>070-261100-
SOUTHEAST SOUTH DAKOTA

CITY           SKY/WX    TMP DP  RH WIND       PRES   REMARKS
SIOUX FALLS    CLEAR     20  16  84 SW3       29.74F
HURON          MOCLDY    23  21  92 SW8       29.73S WCI  14
CHAMBERLAIN    PTCLDY    23  19  81 W9        29.76R WCI  13
MITCHELL       CLEAR     26  19  74 SW10      29.75S WCI  16
YANKTON        CLEAR     21  16  79 SW10      29.78S WCI  10
$$

ABBREVIATIONS USED IN REMARKS
   TC - TEMPERATURE IN CELSIUS
  WCI - WIND CHILL INDEX
   HX - HEAT INDEX
  VSB - VISIBILITY




USA.gov is the U.S. government's official web portal to all federal, state and local government web resources and services.